Other Public Products
Issued by NWS Grand Forks, ND

Home | Current Version | Previous Version | Text Only | Print | Product List | Glossary On
Versions: 1 2 3 4 5 6 7 8 9 10 11 12 13 14 15 16 17 18 19 20 21 22 23 24 25 26 27 28 29 30 31 32 33 34 35 36 37 38 39 40 41 42 43 44 45 46 47 48 49 50
000
FPUS83 KFGF 171410
OPUFGF
PRAIRIE TO PINES WEATHER ROUNDUP
NATIONAL WEATHER SERVICE EASTERN NORTH DAKOTA/GRAND FORKS ND
900 AM CDT THU AUG 17 2017

 **SATELLITE DATA USED TO AUGMENT SKY COVER AT AUTOMATED STATIONS**
 *****  WEATHER ACROSS EASTERN NORTH DAKOTA  *****

CITY           SKY/WX    TMP DP  RH WIND       PRES   REMARKS
GRAND FORKS    FOG       61  61 100 N8        29.84R VSB 1/4
GRAND FORKS AF CLOUDY    61  61 100 N6        29.85S FOG
GRAND CITY NWS NOT AVBL
BUXTON           N/A     60  60  99 N6          N/A
DEVILS LAKE    FAIR      61  58  90 NW6       29.88S
FARGO          CLOUDY    64  61  90 N17       29.82R
WAHPETON ARPT  CLOUDY    61  57  88 NW14G23   29.81R
$$

 *****  WEATHER ACROSS CENTRAL AND WESTERN NORTH DAKOTA  *****

CITY           SKY/WX    TMP DP  RH WIND       PRES   REMARKS
JAMESTOWN      FAIR      63  59  87 NW5       29.87S
BISMARCK       FAIR      60  57  89 CALM      29.91S
MINOT          FAIR      67  54  63 S5        29.85S
MINOT AFB      FAIR      66  55  66 CALM      29.85R
GARRISON         N/A     64  58  80 S7        29.88R
WILLISTON      FAIR      66  53  63 SW8       29.83R
DICKINSON      FAIR      65  51  60 S14       29.87S
HETTINGER      FAIR      64  51  62 S5        29.92R
$$

 *****  OTHER OBSERVATIONS NORTHEAST NORTH DAKOTA  *****

CITY           SKY/WX    TMP DP  RH WIND       PRES   REMARKS
WALHALLA       FAIR      61  61 100 CALM      29.85S
LANGDON        FAIR      63  63 100 NW5       29.87F
CAVALIER       FOG       59  59 100 W3        29.85S VSB<1/4
GRAFTON        FOG       59  59 100 NW6       29.86S VSB<1/4
CANDO          FAIR      61  61 100 NW3       29.90R
FORT TOTTEN      N/A     64  64  98 CALM      29.95S
ROLLA          FAIR      63  59  88 N7        29.89F
RUGBY          PTSUNNY   59  57  94 CALM      29.88R
 ***** THE ABOVE OBSERVATIONS ARE NON NWS ARE NOT QUALITY
        CONTROLLED AND MAY MIS-REPORT RAIN FOR SNOW...
$$

 *****  OTHER OBSERVATIONS SOUTHEAST NORTH DAKOTA *****

CITY           SKY/WX    TMP DP  RH WIND       PRES   REMARKS
COOPERSTOWN    FAIR      63  63 100 N6        29.87S
VALLEY CITY      N/A     63  63 100 N7        29.88R
OAKES          NOT AVBL
GWINNER        SUNNY     64  61  88 N9        29.85S
SHEYENNE NWR     N/A     62  61  96 N9        29.95
BUFFALO          N/A     61  58  92 N9          N/A
WYNDMERE       NOT AVBL
 ***** THE ABOVE OBSERVATIONS ARE NON NWS ARE NOT QUALITY
       CONTROLLED AND MAY MIS-REPORT RAIN FOR SNOW...
$$

  *****  WEATHER ACROSS NORTHERN MINNESOTA  *****

CITY           SKY/WX    TMP DP  RH WIND       PRES   REMARKS
FLAG ISLAND    FAIR      63  57  82 NE5       29.82R
WARROAD        CLOUDY    63  61  94 N9        29.83S
ROSEAU         FAIR      61  55  82 N5        29.83S
HALLOCK        FAIR      57  57 100 CALM      29.84S
THF RVR FALLS  CLOUDY    62  59  90 N13       29.83R
HALSTAD        NOT AVBL
FOSSTON        CLOUDY    61  59  94 N14       29.81S
BAUDETTE       CLOUDY    61  60  97 NE8       29.80R
WASKISH        CLOUDY    61  59  94 NE8       29.78S
CROOKSTON      CLOUDY    63  61  94 N10       29.84R
$$
  *****  WEATHER ACROSS CENTRAL AND WEST MINNESOTA  *****

CITY           SKY/WX    TMP DP  RH WIND       PRES   REMARKS
BEMIDJI        CLOUDY    60  59  98 N9        29.78R FOG
PARK RAPIDS    CLOUDY    63  60  90 N15G25    29.75R
WADENA         PTSUNNY   64  64 100 N12G18    29.74R
DETROIT LAKES  CLOUDY    61  61 100 N13G21    29.80R
MOORHEAD       CLOUDY    63  61  94 N13G22    29.82R
FERGUS FALLS   CLOUDY    63  63 100 NW16G25   29.78R FOG
ELBOW LAKE     CLOUDY    62  62 100 W16G24    29.77S FOG
MORRIS MN      CLOUDY    63  63 100 NW16G24   29.77R FOG
STAPLES        DRIZZLE   63  63 100 N12       29.72R
WHEATON        CLOUDY    63  57  82 NW18G28   29.82R
$$
  *****  WEATHER ELSEWHERE ACROSS MINNESOTA  *****

CITY           SKY/WX    TMP DP  RH WIND       PRES   REMARKS
DULUTH         DRZL/FOG  59  59 100 NE10      29.64S VSB 3/4
INTRNTL FALLS  LGT RAIN  59  57  93 NE8       29.77F
ELY            HVY RAIN  59  57  94 N7        29.71S
CLOQUET        DRIZZLE   61  57  88 N7        29.65R
BRAINERD       LGT RAIN  61  60  97 N14       29.69S FOG
HIBBING        HVY RAIN  57  57 100 N8        29.70F FOG
ALEXANDRIA     CLOUDY    65  65 100 NW15      29.75R
SAINT CLOUD    LGT RAIN  62  62 100 N12       29.64R FOG
MINNEAPOLIS    CLOUDY    68  65  90 NW10      29.56R
$$

  *****  WEATHER ACROSS SOUTH DAKOTA  *****

CITY           SKY/WX    TMP DP  RH WIND       PRES   REMARKS
SIOUX FALLS    PTSUNNY   65  61  87 NW18G26   29.87R
BROOKINGS      CLOUDY    63  58  83 NW18G24   29.86R
WATERTOWN      FAIR      64  60  87 NW17G23   29.85R
HURON          FAIR      62  57  83 NW12      29.91R
SISSETON         N/A     64  60  87 NW17G25   29.82R
ABERDEEN       FAIR      66  60  81 NW9       29.89R
MITCHELL       FAIR      63  57  81 W10       29.92R
PIERRE         FAIR      60  51  72 CALM      29.94R
MOBRIDGE       FAIR      63  60  90 CALM      29.91R
RAPID CITY     FAIR      62  52  69 SE6       29.95S
$$

  *****  SOME WEATHER IN NEARBY STATES *****

CITY           SKY/WX    TMP DP  RH WIND       PRES   REMARKS
GLASGOW MT     FAIR      60  39  45 NW10      29.86S
GREAT FALLS MT FAIR      63  32  31 SW9       30.02R
CHEYENNE WY    FAIR      62  45  53 W7        30.18S
SCOTTSBLUFF NE FAIR      59  52  77 E8        30.06S
OMAHA NE       FAIR      69  59  70 NW17      29.90S
DES MOINES IA  FAIR      72  64  76 W16G22    29.80S
DAVENPORT IA   CLOUDY    72  65  78 W21G30    29.79R
CHICAGO IL     CLOUDY    74  69  85 S12       29.76F
EAU CLAIRE WI  LGT RAIN  66  65  96 SE12      29.50F VSB 1
LA CROSSE WI   CLOUDY    73  64  73 S13G24    29.59S
$$

  *****  SOME NATIONAL WEATHER *****

CITY           SKY/WX    TMP DP  RH WIND       PRES   REMARKS
LA GUARDIA NY  PTSUNNY   73  62  68 NE9       30.07S
RALEIGH NC     FAIR      87  76  69 SW10      30.06R HX  97
ATLANTA GA     FAIR      83  73  72 NW8       30.11S
NEW ORLEANS LA FAIR      84  78  82 SW5       30.09R HX  95
OKLAHOMA CITY  FAIR      72  70  93 CALM      30.02R
ALBUQUERQUE NM FAIR      66  45  46 E5        30.24R
SALT LAKE CITY FAIR      71  47  42 SE10      30.11R
LOS ANGELES CA FAIR      67  62  84 VRB3      30.00R
BOISE ID       FAIR      60  39  45 SE8       30.08R
SEATTLE WA     CLOUDY    60  56  86 CALM      30.18R
$$

*** WEATHER ACROSS MANITOBA...SASKATCHEWAN AND ONTARIO ***
                ***ONTARIO***

CITY           SKY/WX    TMP DP  RH WIND       PRES   REMARKS
GERALDTON      CLOUDY    59  52  77 E5        29.87F
THUNDER BAY    LGT RAIN  61  61 100 E14G21    29.73S
SIOUX LOOKOUT  CLOUDY    61  57  88 VRB2      29.82F
TORONTO        PTSUNNY   73  63  68 E10       29.99F
BIG TROUT LK   CLOUDY    66  61  82 S2        29.85S
PICKLE LAKE    CLOUDY    61  55  82 SE5       29.86F
DRYDEN         CLOUDY    61  57  88 NE3       29.82F
KENORA         PTSUNNY   61  57  88 N3        29.83F
$$
                *** MANITOBA***

CITY           SKY/WX    TMP DP  RH WIND       PRES   REMARKS
BRANDON        CLOUDY    59  55  88 NW3       29.87R
DAUPHIN        SUNNY     61  54  77 W6        29.86R
ISLAND LAKE    NOT AVBL
PILOT MOUND      N/A     59  55  88 W5          N/A
THE PAS        CLOUDY    61  52  72 W14       29.80R
THOMPSON       MOSUNNY   63  55  77 SW7       29.74S
WINNIPEG       FOG       61  61 100 S5        29.85S VSB 5/8
LYNN LAKE      SUNNY     59  52  77 MISG      29.66S HAZE
CHURCHILL      MOSUNNY   66  61  82 S10       29.71F
GILLAM         CLOUDY    63  59  88 S6        29.74S FOG
$$
                ***SASKATCHEWAN***

CITY           SKY/WX    TMP DP  RH WIND       PRES   REMARKS
ESTEVAN        PTSUNNY   63  55  77 NE10      29.88R
KINDERSLEY     MOSUNNY   59  52  77 W3        29.93R
LLOYDMINSTER   MOSUNNY   55  52  88 W12       29.89S SMOKE
PRINCE ALBERT  MOSUNNY   59  55  88 SW3       29.87R
REGINA         CLOUDY    64  48  55 SE10      29.87R
YORKTON        SUNNY     59  55  88 S3        29.86F


USA.gov is the U.S. government's official web portal to all federal, state and local government web resources and services.